[[[{"header":{"parameterUnit":"kt","parameterCategory":2,"dx":1,"dy":1,"la1":30.253999710083008,"la2":30.299108505249023,"lo1":-89.0895004272461,"lo2":-89.04439544677734,"nx":28,"ny":28,"refTime":"2022-10-22T21:00:00:Z","depth":0,"parameterNumber":1,"parameterNumberName":"U-component_of_WINDS"},"data":[-3.5415,-3.555,-3.564,-3.5839,-3.5954,-3.6108,-3.6192,-3.6312,-3.6432,-3.6629,-3.676,-3.687,-3.7031,-3.7213,-3.7364,-3.7411,-3.7469,-3.7449,-3.7509,-3.7505,-3.7511,-3.7517,-3.7489,-3.746,-3.746,-3.7499,-3.7499,-3.7499,-3.5404,-3.5517,-3.5648,-3.5837,-3.5951,-3.6024,-3.6182,-3.6274,-3.6411,-3.656,-3.6694,-3.6878,-3.7037,-3.7209,-3.7379,-3.745,-3.7497,-3.749,-3.7487,-3.7512,-3.7512,-3.7481,-3.7449,-3.7449,-3.7449,-3.7449,-3.7449,-3.7449,-3.5408,-3.5485,-3.5652,-3.5797,-3.5917,-3.6044,-3.6137,-3.6268,-3.6401,-3.6585,-3.6672,-3.6832,-3.7002,-3.7255,-3.7365,-3.7495,-3.7521,-3.7544,-3.7551,-3.7554,-3.7545,-3.7478,-3.7529,-3.7529,-3.753,-3.753,-3.753,0,-3.544,-3.551,-3.5642,-3.5801,-3.5912,-3.6046,-3.6186,-3.6246,-3.6433,-3.6536,-3.6694,-3.6801,-3.7016,-3.7179,-3.7361,-3.7472,-3.7564,-3.7584,-3.7601,-3.756,-3.75,-3.7535,-3.7531,-3.7582,-3.7583,-3.7584,-3.7584,-3.7584,-3.5452,-3.5532,-3.5752,-3.5833,-3.5931,-3.606,-3.6158,-3.6316,-3.6413,-3.6611,-3.6675,-3.6839,-3.6979,-3.7221,-3.7381,-3.7544,-3.7591,-3.76,-3.7616,-3.7573,-3.7593,-3.7587,-3.7597,-3.7593,-3.7592,-3.7591,-3.7591,0,-3.545,-3.5599,-3.5754,-3.5966,-3.6022,-3.61,-3.6284,-3.6372,-3.6492,-3.663,-3.6672,-3.6862,-3.7017,-3.7176,-3.7387,-3.7467,-3.7604,-3.7645,-3.7546,-3.7563,-3.7588,-3.7584,-3.7642,-3.7658,-3.7689,-3.7688,-3.7688,0,-3.552,-3.562,-3.5838,-3.592,-3.6038,-3.6195,-3.6309,-3.6423,-3.6572,-3.6682,-3.6809,-3.6911,-3.7099,-3.7225,-3.7342,-3.7483,-3.7523,-3.7593,-3.7623,-3.7582,-3.7573,-3.7639,-3.7641,-3.7686,-3.7686,-3.7686,-3.7685,0,-3.5502,-3.5738,-3.5871,-3.595,-3.6188,-3.6249,-3.6351,-3.6519,-3.6614,-3.6763,-3.6828,-3.6991,-3.7082,-3.7208,-3.7356,-3.7361,-3.7532,-3.7571,-3.7604,-3.76,-3.7635,-3.7631,-3.764,-3.7685,-3.7685,-3.7685,-3.7684,0,-3.5583,-3.5725,-3.5897,-3.6099,-3.6155,-3.6244,-3.6414,-3.6527,-3.6696,-3.6774,-3.6894,-3.6999,-3.7134,-3.716,-3.735,-3.7315,-3.7397,-3.7477,-3.7482,-3.7505,-3.753,-3.7515,-3.7507,-3.7513,-3.7525,-3.7524,-3.7523,0,-3.5522,-3.5736,-3.5871,-3.6032,-3.6153,-3.6287,-3.639,-3.6535,-3.6648,-3.677,-3.6898,-3.7037,-3.709,-3.7156,-3.7229,-3.7368,-3.7413,-3.7366,-3.7547,-3.7551,-3.7497,-3.7491,-3.745,-3.749,-3.7508,-3.7509,-3.751,0,-3.5494,-3.578,-3.5799,-3.5896,-3.611,-3.6213,-3.6331,-3.6502,-3.6575,-3.6725,-3.683,-3.703,-3.7079,-3.7187,-3.7291,-3.7358,-3.7387,-3.7403,-3.741,-3.7395,-3.7513,-3.7474,-3.748,-3.7443,-3.7445,-3.7447,-3.7498,0,-3.5583,-3.571,-3.5768,-3.5975,-3.6079,-3.6189,-3.6355,-3.6443,-3.653,-3.6648,-3.6806,-3.6969,-3.7148,-3.7197,-3.7284,-3.7386,-3.7395,-3.7446,-3.7485,-3.7479,-3.75,-3.7509,-3.7439,-3.7441,-3.7443,-3.7444,0,0,-3.5489,-3.5673,-3.5819,-3.5938,-3.6035,-3.6173,-3.6276,-3.6387,-3.6609,-3.6675,-3.6697,-3.7001,-3.7133,-3.7309,-3.732,-3.7392,-3.7427,-3.7423,-3.748,-3.7483,-3.7487,-3.7507,-3.7513,-3.7448,-3.7448,-3.7449,-3.7449,0,-3.5556,-3.568,-3.5778,-3.5899,-3.6083,-3.6202,-3.6225,-3.6433,-3.6514,-3.6668,-3.6784,-3.6899,-3.7138,-3.7264,-3.7359,-3.7405,-3.7487,-3.7447,-3.7415,-3.7492,-3.7493,-3.7494,-3.7513,-3.7517,-3.7454,-3.7454,-3.7453,0,-3.5558,-3.5709,-3.5774,-3.5998,-3.6121,-3.6243,-3.6323,-3.6448,-3.6542,-3.6691,-3.6843,-3.6957,-3.7139,-3.7282,-3.7353,-3.7376,-3.7533,-3.7513,-3.7507,-3.7519,-3.7602,-3.7603,-3.7603,-3.7596,-3.7595,-3.7595,0,0,-3.5594,-3.5712,-3.5925,-3.6025,-3.6094,-3.6272,-3.6354,-3.6451,-3.6608,-3.6671,-3.6819,-3.6971,-3.7113,-3.7202,-3.7344,-3.7477,-3.7529,-3.7523,-3.7517,-3.7511,-3.7519,-3.7601,-3.7601,-3.7594,-3.7594,-3.7594,0,0,-3.5613,-3.5862,-3.5921,-3.6058,-3.6201,-3.6421,-3.6478,-3.6557,-3.6701,-3.6707,-3.6879,-3.6927,-3.7065,-3.7173,-3.7142,-3.7361,-3.7396,-3.7407,-3.7285,-3.728,-3.7273,-3.7245,-3.725,0,0,0,0,0,-3.5766,-3.5831,-3.5882,-3.5929,-3.6216,-3.6391,-3.643,-3.6571,-3.6592,-3.6634,-3.677,-3.6853,-3.7192,-3.7168,-3.7215,-3.7248,-3.7584,-3.7586,-3.7587,-3.7463,-3.7455,-3.7448,0,0,0,0,0,0,-3.5786,-3.5843,-3.5881,-3.6099,-3.6165,-3.639,-3.6458,-3.6498,-3.6591,-3.6604,-3.6823,-3.686,-3.6986,-3.7154,-3.7194,-3.7223,-3.7237,-3.7584,-3.7586,-3.7587,-3.746,-3.7454,-3.7448,0,0,0,0,0,-3.5802,-3.5849,-3.627,-3.61,-3.6157,-3.636,-3.6456,-3.6491,-3.6566,-3.6777,-3.6816,-3.6663,-3.6982,-3.7026,-3.7179,-3.7201,-3.721,-3.7224,-3.7585,-3.7587,-3.7588,-3.7457,0,0,0,0,0,0,-3.5815,-3.5883,-3.6285,-3.6308,-3.6085,-3.6351,-3.6397,-3.6483,-3.6736,-3.6774,-3.6626,-3.6633,-3.6981,-3.7015,-3.7048,-3.7185,-3.7188,-3.7203,-3.7212,-3.7586,-3.7587,-3.7588,0,0,0,0,0,0,-3.5859,-3.5901,-3.6297,-3.6271,-3.6292,-3.6341,-3.6382,-3.6533,-3.6738,-3.6571,-3.6585,-3.6626,-3.6933,-3.7008,-3.7034,-3.7264,-3.7172,-3.7186,-3.7195,-3.7201,-3.7587,-3.7588,0,0,0,0,0,0,-3.588,-3.5916,-3.6266,-3.6282,-3.6301,-3.6569,-3.6477,-3.6764,-3.671,-3.6558,-3.671,-3.6709,-3.6924,-3.6953,-3.7024,-3.7241,-3.7258,-3.7172,-3.7182,-3.7188,-3.7193,0,0,0,0,0,0,0,-3.5896,-3.5618,-3.6149,-3.6292,-3.6308,-3.652,-3.6526,-3.6532,-3.671,-3.671,-3.671,-3.6709,-3.7092,-3.7107,-3.7123,-3.7223,0,0,-3.7171,-3.7177,0,0,0,0,0,0,0,0,-3.5606,-3.5615,-3.615,-3.6154,-3.6159,-3.6521,-3.6526,-3.6531,-3.671,-3.671,-3.671,-3.671,-3.7096,-3.7108,-3.7121,0,0,0,0,0,0,0,0,0,0,0,0,0,0,0,-3.615,-3.6154,0,-3.6521,-3.6526,-3.653,-3.671,-3.671,-3.671,-3.671,-3.7099,-3.711,-3.712,0,0,0,0,0,0,0,0,0,0,0,0,0,0,0,0,0,0,0,0,0,0,0,0,0,0,0,0,0,0,0,0,0,0,0,0,0,0,0,0,0,0,0,0,0,0,0,0,0,0,0,0,0,0,0,0,0,0,0,0,0,0,0,0,0,0,0,0,0]}],[{"header":{"parameterUnit":"kt","parameterCategory":2,"dx":1,"dy":1,"la1":30.253999710083008,"la2":30.299108505249023,"lo1":-89.0895004272461,"lo2":-89.04439544677734,"nx":28,"ny":28,"refTime":"2022-10-22T21:00:00:Z","depth":0,"parameterNumber":2,"parameterNumberName":"V-component_of_WINDS"},"data":[5.5858,5.6157,5.625,5.6636,5.6785,5.7067,5.7198,5.7378,5.7547,5.7898,5.8117,5.8246,5.8457,5.8745,5.8991,5.9045,5.9144,5.9179,5.9237,5.8985,5.8957,5.893,5.8863,5.9199,5.9199,5.9484,5.9487,5.9489,5.5661,5.581,5.6041,5.6329,5.6529,5.6549,5.6782,5.695,5.7203,5.7414,5.7635,5.7954,5.822,5.8424,5.8698,5.8845,5.8874,5.8913,5.8905,5.8938,5.8672,5.86,5.8885,5.8885,5.8885,5.8884,5.8884,5.8884,5.5327,5.5503,5.5731,5.5985,5.6156,5.6349,5.6536,5.6688,5.692,5.7213,5.7285,5.7576,5.7809,5.8189,5.8342,5.8574,5.855,5.8625,5.8645,5.8662,5.8667,5.8242,5.8626,5.8626,5.8625,5.8625,5.8625,0,5.5113,5.5178,5.5408,5.5664,5.5855,5.6066,5.6275,5.6394,5.6573,5.6758,5.7034,5.7211,5.7561,5.7835,5.8115,5.8262,5.8309,5.8325,5.8378,5.8347,5.8282,5.8321,5.7883,5.8314,5.8312,5.831,5.8309,5.8308,5.4785,5.4979,5.5265,5.5414,5.5552,5.5791,5.5954,5.6097,5.6264,5.6547,5.6699,5.6974,5.7203,5.7635,5.782,5.8085,5.8111,5.8265,5.8152,5.8112,5.8116,5.8103,5.8125,5.8284,5.8287,5.829,5.8292,0,5.4591,5.4745,5.5078,5.5345,5.5418,5.5617,5.5848,5.6033,5.6163,5.6438,5.651,5.6718,5.699,5.7152,5.7497,5.7574,5.791,5.7928,5.7829,5.7842,5.7996,5.798,5.847,5.8543,5.8195,5.8198,5.82,0,5.4373,5.4625,5.484,5.5026,5.5311,5.5448,5.5728,5.5869,5.6071,5.6288,5.6365,5.6568,5.6743,5.6971,5.7085,5.7388,5.7453,5.753,5.7558,5.7525,5.7515,5.762,5.7604,5.7611,5.7609,5.7606,5.7604,0,5.4055,5.4467,5.4768,5.4888,5.5201,5.5341,5.5478,5.5706,5.5867,5.6101,5.6207,5.6472,5.6617,5.6822,5.6965,5.6882,5.734,5.7256,5.742,5.7416,5.7514,5.7507,5.7898,5.7601,5.76,5.7599,5.7599,0,5.3904,5.4132,5.4547,5.4809,5.4912,5.5113,5.538,5.5589,5.5825,5.5908,5.6095,5.6167,5.6444,5.6349,5.6735,5.6587,5.6727,5.6826,5.6841,5.6878,5.6767,5.6968,5.7322,5.7366,5.6908,5.6903,5.6898,0,5.3498,5.3958,5.4078,5.4472,5.4707,5.4775,5.5003,5.5208,5.5339,5.556,5.5705,5.5959,5.5922,5.6024,5.6194,5.6356,5.6549,5.6334,5.6659,5.6668,5.6592,5.692,5.6933,5.7226,5.6826,5.6834,5.6839,0,5.3203,5.3578,5.364,5.3782,5.4075,5.4274,5.4534,5.4813,5.4953,5.5178,5.5402,5.5763,5.575,5.5919,5.6007,5.6175,5.6422,5.614,5.6149,5.6186,5.6804,5.6814,5.6863,5.6445,5.6454,5.6461,5.6782,0,5.294,5.3191,5.3364,5.3676,5.3854,5.411,5.4278,5.4444,5.4508,5.4639,5.4972,5.5189,5.5479,5.5576,5.5643,5.5975,5.5946,5.5931,5.5853,5.6065,5.6176,5.6221,5.5673,5.5672,5.5671,5.567,0,0,5.2514,5.2877,5.3003,5.3259,5.3417,5.3486,5.3745,5.3908,5.4238,5.4348,5.4304,5.4843,5.5022,5.541,5.5489,5.5607,5.5683,5.5603,5.5962,5.5994,5.6024,5.6139,5.6183,5.5668,5.5668,5.5668,5.5667,0,5.2453,5.2625,5.2877,5.305,5.3312,5.3438,5.3498,5.3772,5.3869,5.4195,5.4252,5.4472,5.4901,5.5083,5.5232,5.5559,5.5592,5.5635,5.5753,5.5945,5.5978,5.6008,5.6127,5.6167,5.5665,5.5665,5.5665,0,5.2193,5.2391,5.253,5.2891,5.3065,5.3307,5.3263,5.3521,5.3704,5.3773,5.4096,5.424,5.4499,5.4842,5.5003,5.497,5.5499,5.5363,5.5375,5.5398,5.5592,5.5632,5.5667,5.5202,5.5199,5.5197,0,0,5.2118,5.2351,5.2611,5.2891,5.2995,5.3188,5.3334,5.3414,5.3641,5.3732,5.3918,5.414,5.4391,5.4553,5.4798,5.5152,5.5218,5.5299,5.5321,5.5338,5.5369,5.5568,5.5607,5.5189,5.5188,5.5188,0,0,5.2084,5.2393,5.2417,5.2762,5.2973,5.3251,5.3418,5.3455,5.3692,5.3682,5.3833,5.3899,5.4224,5.4365,5.4226,5.4774,5.4693,5.473,5.467,5.4701,5.4722,5.4683,5.4216,0,0,0,0,0,5.2107,5.2354,5.2372,5.2455,5.2915,5.324,5.33,5.3428,5.3366,5.3495,5.3657,5.3682,5.4321,5.4201,5.4284,5.4438,5.5074,5.5095,5.5114,5.5121,5.5151,5.5176,0,0,0,0,0,0,5.2141,5.2241,5.2366,5.2651,5.2756,5.3232,5.3156,5.3198,5.3356,5.3355,5.365,5.3691,5.381,5.4168,5.4241,5.4385,5.4192,5.5082,5.51,5.5115,5.5131,5.5155,5.5176,0,0,0,0,0,5.2168,5.2249,5.2953,5.2649,5.274,5.2968,5.3148,5.3183,5.3307,5.3559,5.36,5.3389,5.381,5.388,5.4212,5.4348,5.4143,5.417,5.5094,5.5107,5.5119,5.5143,0,0,0,0,0,0,5.2189,5.2285,5.2975,5.3008,5.2564,5.2944,5.3008,5.3168,5.3503,5.3547,5.3304,5.33,5.3814,5.3867,5.3921,5.4328,5.4103,5.413,5.4147,5.5104,5.5114,5.5124,0,0,0,0,0,0,5.2242,5.2312,5.2992,5.2878,5.2899,5.2922,5.2978,5.328,5.3506,5.3231,5.3237,5.3298,5.3735,5.386,5.3901,5.4367,5.4072,5.4098,5.4116,5.4127,5.5112,5.5121,0,0,0,0,0,0,5.2274,5.2335,5.287,5.2886,5.2904,5.3282,5.3191,5.3657,5.3403,5.3215,5.3384,5.3376,5.3727,5.3772,5.3888,5.4335,5.4359,5.4073,5.4091,5.4103,5.4111,0,0,0,0,0,0,0,5.23,5.1866,5.278,5.2894,5.2909,5.331,5.3319,5.3328,5.3401,5.3394,5.3386,5.3379,5.3925,5.3953,5.3982,5.431,0,0,5.407,5.4083,0,0,0,0,0,0,0,0,5.1843,5.186,5.2781,5.2788,5.2795,5.3311,5.3318,5.3326,5.34,5.3394,5.3388,5.3382,5.3932,5.3955,5.3978,0,0,0,0,0,0,0,0,0,0,0,0,0,0,0,5.2782,5.2787,0,5.3312,5.3318,5.3324,5.3399,5.3394,5.3389,5.3384,5.3939,5.3958,5.3977,0,0,0,0,0,0,0,0,0,0,0,0,0,0,0,0,0,0,0,0,0,0,0,0,0,0,0,0,0,0,0,0,0,0,0,0,0,0,0,0,0,0,0,0,0,0,0,0,0,0,0,0,0,0,0,0,0,0,0,0,0,0,0,0,0,0,0,0,0]}]]]